Weather History for Charlevoix, MI

Change the Weather History Date:

Monday, November 26, 2012

  Actual Average Record
Temperature  
Mean Temperature 28 °F -  
Max Temperature 30 °F 46 °F 52 °F (2011)
Min Temperature 27 °F 34 °F 17 °F (2005)
Degree Days  
Heating Degree Days 36    
Moisture  
Dew Point 19 °F    
Average Humidity 66    
Maximum Humidity 82    
Minimum Humidity 56    
Precipitation  
Precipitation 0.00 in - - ()
Sea Level Pressure  
Sea Level Pressure 30.15 in    
Wind  
Wind Speed 14 mph (NW)    
Max Wind Speed 22 mph    
Max Gust Speed 29 mph    
Visibility 9 miles    
Events Snow    
Averages and records for this station are not official NWS values.
T = Trace of Precipitation, MM = Missing Value Source: NWS Daily Summary

Daily Weather History Graph

Daily Weather History Graph

Search for Another Location

Airport:

Trip Planner

Search our weather history database for the weather conditions in past years. The results will help you decide how hot, cold, wet, or windy it might be!

Date:

Astronomy

Nov. 26, 2012 Rise Set
Actual Time 7:54 AM EST 5:02 PM EST
Civil Twilight 7:21 AM EST 5:35 PM EST
Nautical Twilight 6:45 AM EST 6:11 PM EST
Astronomical Twilight 6:09 AM EST 6:47 PM EST
Moon 3:56 PM EST (11/26) 6:01 AM EST (11/26)
Length of Visible Light 10h 13m
Length of Day
9h 07m
Waxing Gibbous, 97% of the Moon is Illuminated
Nov 26
Waxing Gibbous
Nov 28
Full
Dec 6
Last Quarter
Dec 13
New
Dec 20
First Quarter

Hourly Weather History & Observations

Time (EST) Temp. Windchill Dew Point Humidity Pressure Visibility Wind Dir Wind Speed Gust Speed Precip Events Conditions
12:15 AM 30.4 °F 18.7 °F 20.8 °F 68% 29.96 in 10.0 mi WNW 17.3 mph 24.2 mph N/A   Overcast
12:34 AM 30.6 °F 19.4 °F 20.3 °F 66% 29.97 in 10.0 mi WNW 16.1 mph 23.0 mph N/A   Overcast
12:55 AM 30.2 °F 17.1 °F 20.1 °F 66% 29.97 in 10.0 mi WNW 21.9 mph 28.8 mph N/A   Overcast
1:14 AM 30.2 °F 18.9 °F 19.4 °F 64% 29.98 in 10.0 mi WNW 16.1 mph 23.0 mph N/A   Overcast
1:35 AM 30.2 °F 18.9 °F 19.4 °F 64% 29.99 in 7.0 mi WNW 16.1 mph 25.3 mph N/A   Overcast
1:54 AM 30.2 °F 19.3 °F 19.2 °F 64% 29.99 in 7.0 mi WNW 15.0 mph 21.9 mph N/A   Overcast
2:14 AM 30.0 °F 18.7 °F 19.2 °F 64% 30.00 in 10.0 mi WNW 16.1 mph 23.0 mph N/A   Overcast
2:35 AM 30.0 °F 19.1 °F 17.2 °F 59% 30.01 in 10.0 mi WNW 15.0 mph 20.7 mph N/A   Overcast
2:54 AM 30.2 °F 19.3 °F 17.8 °F 60% 30.02 in 10.0 mi WNW 15.0 mph - N/A   Overcast
3:15 AM 30.4 °F 19.5 °F 17.2 °F 58% 30.02 in 10.0 mi NW 15.0 mph 20.7 mph N/A   Overcast
3:34 AM 30.2 °F 20.2 °F 17.1 °F 58% 30.02 in 10.0 mi NW 12.7 mph 23.0 mph N/A Snow Light Snow
3:55 AM 30.2 °F 21.3 °F 16.2 °F 56% 30.03 in 7.0 mi WNW 10.4 mph 24.2 mph N/A   Overcast
4:14 AM 30.2 °F 20.2 °F 16.0 °F 56% 30.03 in 10.0 mi WNW 12.7 mph 20.7 mph N/A   Overcast
4:35 AM 30.2 °F 19.8 °F 19.0 °F 63% 30.03 in 10.0 mi NW 13.8 mph 19.6 mph N/A   Overcast
4:54 AM 30.2 °F 19.3 °F 21.4 °F 70% 30.04 in 10.0 mi NW 15.0 mph 20.7 mph N/A   Overcast
5:15 AM 29.3 °F 19.6 °F 22.3 °F 75% 30.05 in 4.0 mi NNW 11.5 mph - N/A Snow Light Snow
5:35 AM 30.0 °F 20.5 °F 19.9 °F 66% 30.07 in 10.0 mi NW 11.5 mph 21.9 mph N/A Snow Light Snow
5:55 AM 30.2 °F 19.8 °F 18.7 °F 62% 30.07 in 7.0 mi NW 13.8 mph 25.3 mph N/A   Overcast
6:14 AM 30.0 °F 20.5 °F 17.4 °F 59% 30.07 in 10.0 mi WNW 11.5 mph 21.9 mph N/A   Overcast
6:35 AM 30.0 °F 21.1 °F 21.7 °F 71% 30.08 in 10.0 mi NW 10.4 mph 20.7 mph N/A Snow Light Snow
6:55 AM 28.6 °F 17.7 °F 23.7 °F 82% 30.08 in 7.0 mi NNW 13.8 mph 19.6 mph N/A Snow Light Snow
7:15 AM 29.8 °F 19.3 °F 19.6 °F 66% 30.09 in 10.0 mi WNW 13.8 mph 19.6 mph N/A   Overcast
7:34 AM 29.5 °F 21.1 °F 20.7 °F 70% 30.09 in 7.0 mi NNW 9.2 mph - N/A Snow Light Snow
7:55 AM 28.9 °F 17.3 °F 21.6 °F 74% 30.10 in 2.5 mi NW 16.1 mph 21.9 mph N/A Snow Light Snow
8:15 AM 29.7 °F 19.6 °F 20.8 °F 70% 30.10 in 7.0 mi NNW 12.7 mph 18.4 mph N/A Snow Light Snow
8:35 AM 29.3 °F 17.7 °F 23.2 °F 78% 30.11 in 7.0 mi NNW 16.1 mph 21.9 mph N/A Snow Light Snow
8:55 AM 29.3 °F 19.6 °F 21.2 °F 72% 30.12 in 10.0 mi NNW 11.5 mph - N/A   Overcast
9:15 AM 30.0 °F 20.0 °F 18.0 °F 61% 30.13 in 7.0 mi NW 12.7 mph 16.1 mph N/A   Overcast
9:35 AM 29.3 °F 20.8 °F 19.8 °F 68% 30.14 in 5.0 mi WNW 9.2 mph 25.3 mph N/A Snow Light Snow
9:55 AM 29.3 °F 19.6 °F 20.3 °F 69% 30.15 in 2.5 mi NW 11.5 mph 20.7 mph N/A Snow Light Snow
10:15 AM 29.5 °F 20.4 °F 19.9 °F 68% 30.15 in 5.0 mi WNW 10.4 mph - N/A Snow Light Snow
10:35 AM 29.3 °F 20.2 °F 19.2 °F 66% 30.16 in 7.0 mi NW 10.4 mph 20.7 mph N/A Snow Light Snow
10:55 AM 29.3 °F 20.2 °F 18.9 °F 65% 30.17 in 7.0 mi WNW 10.4 mph 19.6 mph N/A Snow Light Snow
11:15 AM 29.3 °F 19.6 °F 18.5 °F 64% 30.17 in 7.0 mi NW 11.5 mph - N/A Snow Light Snow
11:35 AM 29.5 °F 18.8 °F 18.5 °F 64% 30.17 in 10.0 mi WNW 13.8 mph - N/A Snow Light Snow
11:55 AM 29.3 °F 18.6 °F 18.5 °F 64% 30.17 in 10.0 mi WNW 13.8 mph - N/A Snow Light Snow
12:15 PM 29.3 °F 19.6 °F 18.3 °F 64% 30.17 in 10.0 mi NW 11.5 mph 17.3 mph N/A   Overcast
12:35 PM 29.1 °F 17.9 °F 18.7 °F 65% 30.17 in 10.0 mi WNW 15.0 mph 20.7 mph N/A   Overcast
12:55 PM 29.1 °F 19.4 °F 18.3 °F 64% 30.17 in 10.0 mi NW 11.5 mph 18.4 mph N/A   Overcast
1:14 PM 28.9 °F 18.2 °F 18.5 °F 65% 30.17 in 7.0 mi WNW 13.8 mph 20.7 mph N/A Snow Light Snow
1:35 PM 28.8 °F 18.4 °F 19.2 °F 68% 30.17 in 10.0 mi NW 12.7 mph 20.7 mph N/A Snow Light Snow
1:55 PM 28.9 °F 18.6 °F 18.9 °F 66% 30.18 in 10.0 mi WNW 12.7 mph 17.3 mph N/A Snow Light Snow
2:14 PM 28.9 °F 18.6 °F 19.9 °F 69% 30.18 in 7.0 mi WNW 12.7 mph 17.3 mph N/A Snow Light Snow
2:35 PM 28.4 °F 17.5 °F 20.3 °F 72% 30.19 in 3.0 mi WNW 13.8 mph 19.6 mph N/A Snow Light Snow
2:55 PM 28.4 °F 17.5 °F 19.0 °F 68% 30.19 in 7.0 mi WNW 13.8 mph 21.9 mph N/A Snow Light Snow
3:15 PM 28.2 °F 16.3 °F 18.5 °F 67% 30.19 in 5.0 mi WNW 16.1 mph 23.0 mph N/A Snow Light Snow
3:35 PM 28.2 °F 15.9 °F 17.8 °F 65% 30.19 in 7.0 mi WNW 17.3 mph 23.0 mph N/A   Overcast
3:55 PM 28.0 °F 16.1 °F 17.1 °F 63% 30.20 in 7.0 mi West 16.1 mph 23.0 mph N/A Snow Light Snow
4:15 PM 28.0 °F 15.7 °F 16.3 °F 62% 30.20 in 10.0 mi West 17.3 mph 21.9 mph N/A   Overcast
4:35 PM 28.0 °F 17.0 °F 15.8 °F 60% 30.21 in 10.0 mi WNW 13.8 mph 17.3 mph N/A Snow Light Snow
4:55 PM 27.7 °F 17.6 °F 15.4 °F 60% 30.21 in 10.0 mi West 11.5 mph - N/A   Overcast
5:13 PM 27.1 °F 18.2 °F 15.4 °F 61% 30.21 in 10.0 mi West 9.2 mph - N/A   Mostly Cloudy
5:34 PM 27.7 °F 18.8 °F 15.4 °F 60% 30.22 in 10.0 mi WNW 9.2 mph - N/A   Mostly Cloudy
5:55 PM 27.9 °F 19.1 °F 15.8 °F 61% 30.22 in 10.0 mi West 9.2 mph - N/A   Overcast
6:15 PM 28.4 °F 19.7 °F 17.8 °F 64% 30.22 in 10.0 mi West 9.2 mph - N/A   Overcast
6:35 PM 28.9 °F 19.2 °F 21.6 °F 74% 30.23 in 7.0 mi NW 11.5 mph 16.1 mph N/A Snow Light Snow
6:54 PM 30.0 °F 21.1 °F 19.6 °F 65% 30.23 in 10.0 mi NNW 10.4 mph 17.3 mph N/A   Overcast
7:15 PM 29.8 °F 20.3 °F 19.6 °F 66% 30.24 in 10.0 mi NNW 11.5 mph 17.3 mph N/A   Overcast
7:34 PM 29.7 °F 20.7 °F 19.2 °F 65% 30.25 in 10.0 mi NNW 10.4 mph 20.7 mph N/A   Overcast
7:55 PM 29.3 °F 19.1 °F 19.6 °F 67% 30.25 in 10.0 mi NW 12.7 mph 21.9 mph N/A   Mostly Cloudy
8:14 PM 29.1 °F 18.9 °F 19.6 °F 68% 30.25 in 10.0 mi North 12.7 mph 16.1 mph N/A   Scattered Clouds
8:35 PM 29.3 °F 20.2 °F 19.6 °F 67% 30.26 in 10.0 mi NNW 10.4 mph 18.4 mph N/A   Mostly Cloudy
8:54 PM 29.7 °F 19.6 °F 20.3 °F 68% 30.27 in 10.0 mi NNW 12.7 mph 18.4 mph N/A   Overcast
9:15 PM 29.3 °F 19.1 °F 17.4 °F 61% 30.27 in 10.0 mi NNW 12.7 mph 20.7 mph N/A   Overcast
9:35 PM 29.3 °F 18.2 °F 19.4 °F 67% 30.27 in 10.0 mi NW 15.0 mph 20.7 mph N/A   Overcast
9:55 PM 29.1 °F 18.9 °F 17.6 °F 62% 30.28 in 10.0 mi NW 12.7 mph - N/A   Overcast
10:14 PM 29.3 °F 19.1 °F 18.7 °F 65% 30.28 in 10.0 mi NNW 12.7 mph - N/A Snow Light Snow
10:35 PM 29.1 °F 20.0 °F 19.2 °F 67% 30.28 in 10.0 mi NW 10.4 mph - N/A   Overcast
10:54 PM 29.1 °F 19.4 °F 20.3 °F 70% 30.29 in 10.0 mi NW 11.5 mph - N/A Snow Light Snow
11:15 PM 28.9 °F 20.4 °F 20.5 °F 71% 30.29 in 7.0 mi NW 9.2 mph - N/A Snow Light Snow
11:34 PM 28.4 °F 18.0 °F 19.0 °F 68% 30.29 in 10.0 mi NW 12.7 mph 16.1 mph N/A   Overcast
11:55 PM 28.4 °F 20.4 °F 19.6 °F 70% 30.29 in 10.0 mi NW 8.1 mph - N/A   Overcast